GFSWCAN_850_temp_015.txt.gz
Temp
4 4 3 3 3 3 2 3 2 2 2 2 2 2 2 2 2 2 2 2 2 1 2 2 3 4 5 6 6 6 4 4 6 7 8 8 8 12 12 14 15 16 19 20 21 21 22 23 25 25 22 27 27 28
4 3 3 3 2 2 2 2 2 2 2 2 2 2 2 2 2 2 2 2 2 2 2 3 4 4 4 5 6 6 5 4 4 7 10 9 10 9 11 12 16 15 14 16 20 20 19 18 18 20 23 25 26 25
3 3 3 2 2 2 2 2 2 2 2 2 2 2 2 2 2 2 1 2 2 2 2 3 5 7 7 7 7 6 6 7 5 7 7 8 9 10 11 13 13 16 14 16 17 19 22 21 20 21 19 18 19 21
3 3 3 3 2 2 2 2 2 2 2 2 2 2 2 2 2 2 1 2 2 1 2 4 6 7 8 8 7 8 8 7 7 5 6 7 8 9 10 10 11 12 13 13 15 13 14 20 17 19 19 19 19 18
3 3 3 3 3 3 2 2 2 2 2 2 2 2 2 2 2 2 2 2 2 2 2 3 4 10 9 10 10 9 8 8 9 8 8 9 8 9 10 10 11 11 12 13 13 11 12 11 15 16 18 17 17 18
4 4 4 4 3 3 3 2 3 3 3 3 3 3 3 3 3 2 2 2 3 2 2 3 6 8 10 10 11 9 9 10 9 10 9 8 8 9 9 9 11 11 11 12 12 11 11 13 15 18 19 19 18 18
4 5 5 4 4 3 3 3 3 4 4 4 4 4 4 3 3 2 3 4 3 2 2 4 7 7 8 10 11 11 11 10 10 9 8 7 7 8 10 9 10 10 11 11 11 13 12 12 10 13 15 16 17 17
5 5 5 5 4 4 4 4 4 5 5 5 5 5 5 4 4 4 4 4 3 2 2 3 6 6 6 8 11 12 11 10 9 8 7 6 7 8 10 10 9 10 10 10 10 11 10 11 13 13 14 15 15 14
6 5 5 5 5 5 5 5 5 5 6 6 6 5 5 5 4 5 4 4 3 3 3 4 4 5 6 6 8 10 11 9 7 7 6 7 7 9 8 8 9 9 9 9 9 10 10 10 11 13 14 14 14 14
6 6 6 6 6 6 5 6 6 6 6 6 6 5 6 6 5 5 4 3 3 2 2 4 4 5 5 7 9 9 11 7 8 7 7 7 7 7 7 8 8 9 9 9 9 9 10 10 11 11 11 12 13 14
6 6 6 7 7 6 6 6 6 6 6 5 6 7 7 6 5 4 4 4 4 4 4 5 7 6 7 7 8 8 9 8 6 8 8 6 7 7 8 8 8 9 9 9 10 10 10 11 11 11 11 11 12 12
7 7 7 7 7 7 7 6 6 5 4 5 4 5 5 6 6 6 5 3 3 5 5 6 7 7 8 8 8 8 8 7 7 8 7 6 7 7 8 8 9 9 10 10 10 11 11 11 11 12 11 11 11 11
7 7 7 8 7 7 7 8 7 6 6 5 5 6 7 6 5 6 5 6 5 6 8 8 7 6 7 8 8 7 8 9 9 8 6 6 6 7 8 9 9 10 11 13 11 12 12 12 13 12 12 12 12 12
8 8 8 8 8 7 8 9 7 7 6 7 8 4 7 7 7 7 8 7 8 7 8 8 8 7 7 8 8 10 10 10 9 8 7 7 7 8 9 11 11 11 12 12 13 13 12 12 12 12 12 12 12 12
8 8 8 8 8 9 9 9 8 8 7 8 9 4 10 12 12 12 13 11 12 12 10 11 11 12 10 11 10 10 9 8 7 8 8 7 8 10 11 12 13 13 13 13 12 13 13 13 13 13 13 13 13 13
7 8 8 7 9 9 9 10 10 9 10 10 11 12 13 11 11 12 13 13 14 13 14 12 11 10 8 7 7 7 8 7 7 7 8 8 8 9 11 12 13 13 12 13 13 13 13 13 13 13 13 13 13 13
7 7 7 8 10 10 10 10 10 12 12 11 11 12 10 10 11 12 13 13 14 13 12 11 9 8 7 7 7 7 7 7 7 8 9 9 9 10 11 11 12 13 12 12 13 13 13 13 13 13 13 13 13 13
8 8 8 8 9 10 11 11 11 12 13 12 11 12 11 10 10 12 12 12 12 12 13 11 11 9 8 8 8 7 7 8 9 9 10 10 10 11 11 12 12 12 13 13 12 13 12 12 12 12 12 12 12 13
8 9 8 9 9 10 10 11 11 12 12 11 11 11 10 10 10 11 11 11 11 11 11 11 9 8 8 8 8 8 9 9 10 10 10 11 11 12 12 12 13 13 13 13 12 12 11 11 11 11 11 11 12 12
10 9 9 9 9 9 11 12 12 12 12 11 11 10 10 10 10 10 10 10 10 10 10 9 8 9 9 9 9 10 10 10 11 12 12 12 12 12 13 12 12 12 12 12 11 11 11 10 10 11 11 11 11 11
10 9 10 10 9 10 11 11 11 11 11 11 12 11 10 9 9 9 9 9 9 9 9 10 10 10 10 10 10 10 11 11 12 12 12 12 12 13 13 13 12 12 12 11 11 10 10 10 10 10 10 10 10 10
10 10 10 10 11 11 11 11 11 11 11 12 12 11 11 10 10 9 9 9 9 9 10 10 10 10 10 10 10 10 11 11 11 12 11 12 12 12 11 11 12 11 10 10 10 9 9 9 9 9 10 10 10 9
11 10 10 11 11 11 12 12 12 13 13 13 12 12 11 10 10 10 9 9 10 10 10 10 11 10 10 10 9 10 10 10 10 10 10 10 10 10 9 9 8 8 8 8 8 8 8 8 8 8 7 8 8 8
11 11 10 11 12 11 14 13 13 14 14 14 12 12 11 10 10 10 9 9 10 10 9 9 9 9 10 10 9 9 9 9 9 10 10 10 9 8 7 7 7 6 6 6 6 6 6 6 6 6 5 5 7 7
10 11 11 11 13 14 15 15 15 15 15 15 12 9 7 8 10 9 9 8 8 9 9 8 9 9 10 9 9 9 8 8 8 8 8 9 8 7 7 5 5 5 5 5 4 4 4 4 3 4 4 4 4 5
6 13 12 12 9 12 14 13 14 14 15 15 13 10 9 10 10 8 8 7 8 8 8 8 9 9 9 9 8 8 7 7 7 6 7 7 6 5 5 4 3 3 4 3 3 3 3 2 2 3 3 3 4 4
10 9 10 10 10 10 11 12 14 15 15 14 14 14 12 9 8 8 7 7 8 8 8 8 9 9 8 8 8 6 6 5 5 5 5 5 4 4 3 3 3 3 3 2 2 2 2 2 2 2 2 2 2 2
10 8 9 11 10 11 14 15 15 14 13 14 14 11 10 8 8 8 7 7 8 8 9 9 8 8 7 7 6 6 5 4 4 3 4 3 2 2 2 2 2 2 2 2 2 2 1 1 1 2 1 1 1 0
11 13 12 13 14 15 15 14 13 12 11 12 11 10 9 7 7 8 8 8 9 9 8 8 8 7 6 6 5 5 3 2 2 1 1 1 1 1 1 1 1 1 1 2 2 1 1 1 1 1 0 0 -0 -1
16 16 16 16 15 15 14 13 12 11 10 10 9 8 8 8 8 8 9 9 8 8 8 8 7 6 5 5 4 4 2 1 -0 -0 -0 -0 0 0 0 0 0 1 1 1 1 1 1 0 0 -0 -0 -1 -1 -1
18 18 17 16 16 15 14 13 12 12 12 11 11 11 10 9 8 8 8 8 8 7 7 7 7 5 5 4 3 3 2 0 -0 0 -1 -1 -1 -1 -1 -1 -1 -1 -0 0 0 -0 -1 -1 -1 -1 -1 -1 -1 -2
18 18 18 18 16 15 14 13 13 13 13 12 11 10 9 8 8 8 8 8 7 7 6 6 6 5 4 3 2 2 1 1 0 -1 -1 -2 -2 -2 -2 -2 -2 -2 -1 -1 -1 -1 -1 -1 -1 -1 -2 -2 -2 -2
18 18 18 18 16 15 15 14 14 14 13 12 12 11 11 10 10 9 8 7 6 5 5 5 4 4 3 2 1 1 1 1 0 -0 -1 -1 -1 -2 -2 -2 -3 -2 -2 -1 -1 -1 -1 -2 -2 -2 -2 -3 -3 -3

GFSWCAN_850_temp_021.txt.gz
Temp
5 5 5 5 4 4 4 3 3 3 3 3 2 2 2 2 2 1 2 1 1 1 2 1 1 2 2 2 2 3 3 3 2 3 5 5 5 6 7 8 10 11 10 11 12 13 13 14 14 15 15 15 21 24
5 5 5 5 5 5 4 4 3 3 3 3 3 3 2 3 2 2 2 2 1 1 1 1 2 2 3 2 2 2 3 3 4 3 3 3 5 5 6 7 10 10 12 11 14 14 13 13 12 13 14 14 14 19
6 6 6 5 5 5 5 4 4 4 4 3 3 3 2 2 2 2 2 2 1 1 1 1 3 5 4 4 2 2 2 3 2 4 3 3 4 5 7 7 9 12 12 12 13 14 13 13 12 13 13 13 15 15
6 6 6 6 5 5 5 5 5 5 4 3 3 3 4 3 3 2 2 2 1 1 1 3 4 3 4 4 4 3 3 3 3 3 3 3 4 4 4 6 8 10 12 14 13 12 13 14 12 12 13 14 15 16
7 6 6 6 6 6 6 6 6 5 4 4 4 4 4 3 2 3 3 3 2 1 1 2 4 6 6 6 6 5 3 2 4 4 3 4 5 4 4 6 8 9 11 12 13 11 12 11 11 11 12 14 15 15
7 7 7 7 6 6 6 6 6 6 5 5 5 5 4 4 3 2 3 3 3 2 1 2 4 7 7 6 6 5 4 2 2 3 4 6 6 5 4 6 9 8 9 10 11 11 11 11 10 11 13 13 15 16
7 7 7 7 7 7 7 7 7 6 6 6 6 5 5 4 4 3 2 3 2 2 1 2 3 5 6 7 7 6 4 3 3 5 5 6 7 6 5 7 8 8 9 10 10 11 11 13 11 12 13 13 14 15
7 7 7 7 8 7 8 7 7 7 8 7 6 6 5 5 4 3 4 3 2 1 1 2 2 4 5 6 7 6 6 6 7 7 8 6 6 6 7 8 7 9 10 10 10 11 11 11 12 13 13 14 14 14
7 7 8 8 8 8 8 8 6 8 8 7 7 6 6 5 4 5 4 3 3 1 1 2 3 4 4 5 6 6 6 5 6 5 6 5 5 6 7 8 8 9 9 9 9 10 11 12 12 12 13 14 14 14
7 7 8 8 9 9 8 8 7 9 8 7 7 6 6 5 5 4 3 3 2 2 1 1 2 3 3 5 5 5 5 5 4 5 5 5 5 7 8 8 8 8 9 9 9 9 11 11 11 12 12 12 12 13
7 7 8 8 9 9 8 8 8 10 9 7 7 6 5 5 4 4 3 2 2 2 1 1 2 3 4 5 6 6 6 5 5 7 6 6 6 6 7 8 8 8 8 9 10 10 10 11 11 12 12 12 13 13
7 8 8 8 9 10 9 9 9 9 8 7 6 5 5 5 5 4 4 2 1 3 3 4 5 5 6 6 6 6 6 6 7 7 6 5 5 7 8 8 8 8 9 10 10 10 11 11 11 12 12 12 12 13
7 8 8 9 9 9 10 10 10 9 9 8 7 7 6 7 7 4 5 6 7 4 5 5 7 6 6 6 6 6 9 8 7 5 4 4 5 8 8 8 9 10 10 10 10 11 11 11 11 11 12 12 13 13
8 8 9 9 10 10 11 11 11 11 9 8 7 5 6 6 7 7 8 8 9 9 8 7 7 7 7 7 7 9 7 7 7 6 6 7 8 8 9 9 10 9 9 10 10 10 11 12 12 12 12 13 13 13
9 9 9 9 11 11 11 12 11 11 10 9 9 5 6 7 8 8 8 8 9 10 9 8 8 8 6 7 7 7 8 6 6 7 8 7 8 9 9 9 10 11 11 11 12 12 11 12 12 12 12 13 13 13
10 10 9 10 11 11 12 12 11 11 10 10 9 7 7 8 8 8 8 8 9 11 10 9 7 7 7 7 7 7 6 7 7 7 7 9 10 10 10 10 11 11 12 12 11 11 11 11 11 12 12 12 12 13
9 9 10 11 11 11 12 12 11 11 10 9 8 8 8 8 7 8 8 9 10 10 9 8 7 7 7 7 7 7 7 7 7 9 10 10 11 10 11 11 11 11 11 11 11 11 11 11 12 12 11 11 12 12
9 9 10 11 12 12 12 11 12 11 9 8 8 8 8 8 7 8 9 9 10 10 9 8 8 7 7 8 8 7 7 10 10 9 9 10 11 11 11 11 10 10 10 10 10 10 10 10 10 10 11 11 11 11
10 10 10 11 11 12 11 12 11 10 10 10 9 9 8 9 9 9 9 9 9 9 9 8 6 5 5 5 6 7 8 8 9 9 10 10 10 10 10 9 10 10 10 9 9 9 9 9 9 9 10 10 9 9
12 11 11 11 11 11 11 11 11 11 10 10 10 9 9 8 8 9 9 9 9 8 7 5 5 6 6 7 7 7 9 9 10 10 8 8 8 9 8 8 8 8 8 9 8 8 9 9 8 8 8 8 9 8
13 12 12 12 11 11 11 11 11 11 11 11 11 10 10 9 9 8 8 8 8 7 6 7 7 8 8 8 8 9 9 9 8 7 6 7 7 7 7 7 7 7 7 7 6 6 6 6 6 6 6 6 6 6
12 12 12 12 12 12 12 11 11 11 11 10 10 10 10 9 8 8 8 8 7 7 7 7 8 8 8 8 8 8 8 8 8 8 8 8 7 7 6 5 6 6 5 5 5 5 5 5 5 5 5 4 5 5
12 12 12 12 12 12 12 11 11 10 8 8 9 9 9 9 9 9 7 7 7 7 8 8 8 8 8 7 8 7 7 7 7 6 6 6 6 6 6 6 6 5 5 4 4 4 3 3 4 4 4 4 3 3
12 12 12 11 11 11 12 12 11 10 8 7 6 8 8 9 9 8 5 7 7 8 8 8 8 8 7 6 6 6 6 6 6 5 4 5 4 4 4 4 3 3 3 3 3 3 2 2 3 3 2 2 2 1
11 11 11 10 10 10 10 10 11 10 8 7 7 7 8 8 5 5 5 7 7 7 7 7 8 7 6 5 5 5 5 5 5 5 3 3 3 3 3 2 2 2 2 2 2 2 1 1 2 1 1 1 0 0
7 10 11 10 10 10 8 9 9 9 9 10 9 9 9 7 6 5 5 7 8 7 7 7 7 7 6 5 4 4 3 3 3 3 2 2 2 2 2 2 2 1 2 1 1 1 1 1 1 1 1 0 0 -0
7 10 11 11 10 10 9 10 10 10 9 9 8 8 7 7 6 6 8 8 8 7 7 7 7 6 6 5 4 3 3 2 2 2 1 1 1 1 1 1 1 1 1 1 1 1 1 1 1 0 -0 -0 -1 -1
12 12 10 11 10 10 10 10 9 8 8 10 9 7 8 6 5 8 8 8 8 8 7 7 6 5 5 4 3 3 2 2 2 1 1 0 0 0 0 0 0 0 1 1 1 1 0 0 -0 -0 -1 -1 -1 -2
13 13 12 11 11 11 12 11 11 11 10 10 7 5 7 8 9 8 8 7 7 7 7 6 5 5 4 4 3 2 2 1 1 0 -1 -1 -1 -1 -1 -1 -0 -0 -0 -0 -0 -0 -0 -1 -1 -1 -2 -2 -2 -2
14 13 13 12 12 12 13 13 13 12 11 11 10 9 9 9 8 8 8 7 7 7 7 6 5 4 4 3 3 2 1 1 0 -0 -1 -2 -2 -2 -2 -1 -1 -1 -1 -1 -1 -1 -1 -1 -1 -2 -2 -2 -2 -3
15 13 14 14 13 14 14 13 12 11 11 11 10 10 9 8 8 8 8 7 7 7 6 6 5 4 3 3 2 2 1 0 0 -0 -1 -1 -1 -2 -2 -2 -2 -2 -1 -1 -1 -1 -2 -2 -2 -2 -3 -3 -3 -3
16 15 14 12 13 13 13 12 11 11 10 10 10 9 9 8 8 7 7 7 7 6 6 5 4 4 3 2 2 1 1 1 0 -0 -1 -1 -1 -1 -2 -2 -2 -2 -2 -2 -2 -2 -2 -2 -3 -3 -3 -3 -3 -3
17 16 16 14 12 12 12 12 11 11 10 10 10 10 9 9 8 7 7 7 6 6 5 4 4 3 2 2 1 1 1 0 -0 -1 -1 -1 -1 -1 -2 -2 -2 -2 -3 -3 -3 -3 -3 -3 -3 -4 -4 -4 -4 -3

GFSWCAN_850_temp_024.txt.gz
Temp
6 5 6 6 5 5 5 5 4 4 4 4 4 3 3 2 2 2 2 1 1 1 1 1 1 1 2 2 2 3 3 2 3 3 4 5 3 4 5 7 7 5 6 6 8 9 11 13 16 17 15 13 14 14
6 6 6 6 6 6 6 5 5 5 5 5 4 3 3 3 3 2 1 2 1 1 1 1 2 2 2 2 2 1 3 3 3 3 2 2 3 4 4 5 7 7 8 8 9 11 11 14 13 13 13 12 13 13
6 6 6 6 7 6 6 6 6 5 5 5 4 4 3 3 3 2 2 2 2 0 1 1 4 5 3 2 1 1 2 2 3 4 2 3 4 3 5 7 7 7 9 8 8 12 13 13 13 13 15 12 12 13
7 7 6 6 7 6 6 6 6 6 6 5 4 4 4 3 3 2 2 2 2 1 0 2 3 4 3 3 3 2 2 2 3 2 2 2 4 4 5 5 5 6 6 8 9 10 14 12 12 13 15 13 12 14
7 7 7 6 7 7 7 6 7 6 6 6 5 5 3 3 3 3 2 2 2 1 1 2 4 5 5 5 4 3 2 1 2 3 3 4 4 4 4 4 4 6 6 7 10 12 13 11 12 13 15 13 13 13
7 7 7 7 7 7 7 7 7 7 7 7 6 5 5 3 3 3 2 3 3 1 1 2 3 6 5 5 5 4 3 1 1 2 3 4 5 3 3 5 6 9 8 8 9 11 15 12 11 12 14 13 13 14
7 7 8 7 8 7 8 7 7 7 7 8 7 7 5 5 3 3 3 3 2 1 1 2 3 4 5 5 4 3 2 1 2 2 3 4 5 3 4 4 6 7 8 8 8 9 10 10 10 12 12 13 13 13
7 8 8 8 8 7 8 8 8 8 9 8 7 7 6 5 3 3 3 3 2 1 1 2 3 3 4 5 5 5 3 2 3 3 4 5 4 5 3 4 4 6 6 7 9 10 11 10 13 13 13 13 13 14
7 7 8 8 8 7 8 8 9 9 9 8 7 6 6 5 4 3 3 3 2 2 1 1 3 4 4 4 5 5 5 4 5 5 5 4 3 4 5 6 8 8 8 9 9 10 9 9 11 12 13 13 12 13
7 7 8 8 9 8 8 9 9 10 9 8 7 6 6 4 4 4 3 3 2 2 1 1 1 3 3 5 5 5 5 5 5 4 4 3 3 5 7 8 8 9 9 10 9 9 9 9 10 11 11 11 11 13
8 8 8 9 9 9 10 9 10 10 9 8 7 6 6 5 4 4 3 2 1 1 0 1 1 2 3 4 6 4 5 5 5 6 5 5 5 7 8 8 9 8 9 8 9 9 10 10 10 10 11 12 13 13
8 8 9 9 9 10 10 11 11 10 9 7 7 6 6 6 5 5 4 2 1 3 3 3 4 3 5 5 5 6 5 5 6 6 5 5 7 7 7 8 9 9 9 9 9 10 10 10 11 11 12 13 13 13
9 9 9 9 10 10 11 12 11 11 10 8 8 7 6 6 6 6 6 7 8 5 5 5 6 6 6 6 6 6 8 7 6 5 4 6 7 7 6 7 8 8 8 9 10 10 10 11 11 12 12 12 12 12
10 10 9 10 10 11 12 12 11 11 9 9 8 5 6 6 7 7 6 7 8 8 8 7 7 6 7 6 7 8 7 6 7 6 6 7 6 6 6 6 8 7 7 8 9 9 9 11 11 11 12 12 12 12
10 10 10 11 11 11 12 12 11 11 10 9 8 5 6 6 7 6 7 8 8 9 9 8 7 8 6 7 7 7 7 6 5 7 7 7 6 9 7 8 7 8 8 8 9 9 10 10 11 11 11 11 12 12
10 10 10 11 11 12 12 11 11 10 10 9 8 7 7 7 7 7 8 7 9 9 9 9 7 7 7 7 7 7 6 7 8 7 7 8 7 9 8 9 9 9 9 9 9 10 10 11 11 11 12 11 11 12
10 10 11 11 11 12 12 11 11 9 9 9 8 8 7 7 6 7 7 8 10 9 7 7 7 7 7 7 8 7 7 7 6 5 7 8 9 9 9 10 10 10 10 10 10 10 10 10 11 11 11 10 10 11
10 10 11 12 12 12 12 11 10 10 9 8 7 7 8 7 7 7 8 8 9 9 8 6 6 5 5 5 5 5 5 6 6 8 8 8 9 9 9 9 9 9 10 9 9 9 9 9 9 9 9 10 10 10
11 11 11 12 12 12 12 12 11 10 9 9 8 8 8 8 8 8 9 9 9 9 9 6 3 4 4 5 5 4 6 6 5 5 7 7 8 8 8 8 8 8 8 8 8 8 8 8 8 9 9 9 9 9
12 12 11 11 12 11 11 11 11 11 10 9 9 9 8 8 8 8 8 8 8 8 6 3 4 5 5 5 5 6 7 7 7 6 5 6 6 7 7 7 7 7 7 7 7 7 7 7 7 7 8 8 8 7
13 13 12 12 12 12 11 11 11 11 10 10 9 9 9 9 8 8 8 7 7 6 5 5 6 6 7 8 8 7 7 8 7 7 6 6 6 6 7 6 6 6 6 5 5 5 5 5 5 5 6 6 5 5
13 13 13 12 12 12 11 11 11 10 10 9 9 9 9 8 8 7 7 7 6 6 5 6 7 7 7 7 7 7 6 6 6 6 5 6 6 5 5 4 4 4 4 3 3 3 3 4 4 4 4 4 4 3
12 12 12 12 12 12 11 11 10 10 8 8 9 8 8 8 8 8 7 7 7 6 6 7 7 7 7 6 6 6 6 6 6 5 5 4 4 4 4 3 3 3 3 2 2 2 3 3 3 2 2 2 2 2
12 12 12 12 11 10 11 11 10 9 8 7 6 8 7 8 8 7 5 7 7 7 7 7 6 6 6 6 5 5 5 5 4 4 3 3 3 3 3 3 3 2 2 1 1 1 2 2 1 1 1 1 1 1
12 11 11 10 11 10 9 9 9 8 8 6 7 7 7 8 5 4 4 7 7 7 7 7 7 6 5 5 4 4 4 3 3 3 3 2 2 2 2 2 2 1 1 1 1 1 1 1 1 1 0 -0 -0 -1
6 10 11 10 9 9 7 9 8 8 7 8 7 7 8 6 6 5 5 8 7 7 7 7 7 6 5 5 4 3 3 2 2 2 2 1 1 1 1 1 1 1 1 1 1 1 1 0 0 0 -0 -1 -1 -1
9 10 11 11 10 10 9 9 9 8 9 9 7 7 7 7 7 6 8 8 8 8 8 7 6 6 5 4 3 3 2 1 1 0 -0 -0 -0 -0 -0 -0 0 0 1 1 1 1 0 -0 -0 -1 -1 -1 -2 -2
12 12 11 11 11 10 9 8 8 8 8 8 8 8 8 7 6 9 9 8 8 8 7 7 6 5 4 4 3 2 2 1 1 0 -1 -1 -1 -1 -1 -1 -1 -0 0 -0 -0 -0 -0 -1 -1 -1 -2 -2 -2 -2
13 13 12 11 11 10 10 10 11 11 11 10 8 5 8 9 9 9 8 8 7 7 7 6 6 5 4 3 2 2 1 1 1 -0 -1 -2 -2 -2 -2 -2 -1 -1 -1 -1 -1 -1 -1 -1 -1 -2 -2 -2 -3 -3
14 13 12 11 10 11 14 13 13 12 12 11 10 10 10 10 9 9 8 8 8 7 7 6 5 5 4 3 2 2 1 0 0 -1 -1 -2 -2 -2 -2 -2 -2 -2 -1 -1 -1 -1 -2 -2 -2 -2 -3 -3 -3 -3
14 13 12 12 12 14 14 13 12 12 11 11 10 10 10 9 9 9 8 8 7 7 6 6 5 4 4 3 2 1 1 0 -0 -1 -1 -1 -2 -2 -2 -2 -2 -2 -2 -2 -2 -2 -2 -2 -3 -3 -3 -3 -3 -3
14 14 13 11 12 12 12 11 11 11 10 10 9 9 9 8 8 8 8 7 7 7 6 5 4 4 3 2 2 1 1 0 -0 -1 -1 -1 -1 -2 -2 -2 -3 -3 -3 -3 -3 -3 -3 -3 -3 -4 -4 -4 -4 -4
14 13 13 13 11 11 11 11 11 10 9 9 9 10 9 9 8 8 8 7 7 6 5 5 4 3 2 2 1 1 0 0 -0 -1 -1 -1 -1 -2 -2 -2 -3 -3 -3 -3 -4 -4 -4 -4 -4 -4 -4 -4 -4 -4

GFSWCAN_850_temp_027.txt.gz
Temp
7 7 7 7 7 6 6 6 6 6 6 5 5 4 4 3 2 2 3 2 1 1 1 1 1 2 2 1 2 4 4 3 4 4 6 7 7 8 8 10 10 10 9 8 10 11 12 17 19 19 19 17 17 17
7 7 7 7 7 6 6 6 6 6 6 6 5 5 4 3 3 3 2 2 2 1 1 2 1 1 2 2 2 2 4 4 4 4 4 3 5 6 7 7 10 9 10 11 11 13 14 15 14 15 14 16 16 15
7 7 7 7 7 7 6 6 7 7 6 6 5 4 4 3 3 3 3 2 2 1 1 1 5 4 4 3 2 1 2 2 3 3 3 3 3 6 6 8 9 10 11 10 11 12 13 13 14 15 14 14 14 14
7 7 7 7 7 7 7 7 7 7 7 7 6 4 4 4 4 3 3 3 2 2 1 3 3 4 3 3 3 2 2 2 2 2 1 3 4 5 5 7 7 10 10 10 10 11 11 12 13 12 14 14 13 14
7 7 7 6 7 7 7 8 8 7 7 7 6 5 4 4 4 3 3 3 2 2 2 2 3 5 4 4 3 3 1 1 1 2 3 3 3 4 4 5 5 7 8 7 9 11 11 13 13 14 13 15 13 12
7 7 7 6 7 7 8 8 8 7 8 7 7 6 5 6 5 3 3 3 3 2 1 2 3 5 4 4 4 3 3 1 1 1 2 3 4 3 4 5 8 8 7 7 8 8 8 10 10 12 12 13 13 12
7 7 7 7 6 7 8 8 8 8 8 8 7 6 6 6 5 4 3 3 2 2 1 2 3 4 5 4 4 2 1 1 1 1 2 2 3 3 3 4 6 7 5 6 7 7 8 9 11 10 11 11 12 12
8 8 7 7 7 8 9 8 9 9 9 8 7 6 7 6 4 3 3 3 2 1 1 2 3 4 4 4 5 3 2 1 1 2 2 3 3 3 3 5 5 5 5 5 6 7 8 9 10 10 11 11 12 12
8 8 8 8 8 8 9 9 9 9 9 8 7 5 5 4 4 3 3 3 2 2 1 1 3 5 3 4 4 4 3 4 3 2 3 3 2 3 4 5 5 8 6 6 6 7 8 9 11 10 11 11 12 12
9 9 8 9 9 9 9 10 10 10 9 8 6 6 5 4 4 3 3 2 2 2 1 1 1 3 2 4 6 4 4 4 4 4 4 2 3 5 6 7 9 8 7 8 9 9 9 10 10 10 10 11 11 11
9 9 9 10 10 10 10 10 10 10 9 7 8 7 6 4 4 4 3 2 1 2 1 1 1 2 3 4 5 5 5 4 5 5 5 4 5 6 6 6 6 9 9 9 9 9 10 10 10 11 10 11 12 12
10 10 10 10 10 10 11 11 11 10 8 8 8 7 7 6 6 6 5 3 2 4 3 3 4 3 4 4 5 6 6 6 7 6 5 5 6 5 6 6 6 6 7 8 8 9 9 9 9 10 10 11 11 11
10 10 10 10 11 11 11 11 11 10 10 9 9 8 7 6 6 6 5 6 7 7 6 6 7 6 6 6 6 7 8 7 7 6 4 5 5 5 5 6 7 7 7 7 6 7 6 7 8 8 8 9 9 10
10 10 10 11 11 11 11 12 11 10 10 9 8 5 5 5 5 6 6 6 7 7 7 7 7 7 7 8 8 8 7 8 7 6 5 6 6 5 6 6 7 5 7 8 7 7 8 9 8 8 8 10 10 10
10 11 11 11 11 11 12 12 11 10 9 8 8 5 7 7 7 7 6 7 8 8 8 8 8 8 9 9 7 6 8 6 5 6 6 6 6 6 6 7 8 8 7 7 8 6 7 8 8 8 8 9 9 10
11 11 11 11 11 12 12 12 11 10 9 9 8 7 7 8 8 8 8 8 8 9 9 9 9 9 8 7 8 7 6 6 6 6 5 7 7 7 7 8 9 9 9 9 9 8 8 8 8 8 10 10 10 10
11 11 12 12 12 12 12 11 10 9 9 8 8 7 5 6 7 7 7 7 9 10 9 9 7 6 7 6 5 3 4 5 4 4 4 5 7 7 8 9 9 9 9 9 9 9 9 9 10 10 9 9 10 9
11 11 12 12 12 13 12 11 10 9 8 7 8 7 7 6 7 7 7 8 9 8 7 7 7 6 5 5 5 5 4 4 4 4 5 6 6 7 8 8 8 8 8 9 9 9 9 9 9 8 8 8 8 8
12 12 12 12 13 12 12 11 10 9 9 8 8 8 8 8 8 8 8 8 8 8 7 7 8 7 6 5 5 5 4 4 4 4 4 5 6 7 7 7 7 7 7 7 7 7 7 7 7 7 7 8 7 6
13 13 12 12 12 12 11 11 11 10 10 9 9 8 8 7 7 8 8 7 7 7 7 7 7 6 5 5 5 4 5 5 5 6 5 4 5 6 6 6 6 5 6 6 6 6 6 6 6 6 6 6 6 5
13 13 13 13 13 12 11 11 10 10 10 9 9 9 9 8 7 7 7 7 7 6 6 5 5 6 6 6 6 6 5 6 5 5 4 5 4 4 4 4 4 5 5 4 3 3 4 4 4 4 4 4 3 2
13 13 13 12 12 12 11 11 10 10 9 9 8 8 8 9 8 7 7 7 6 5 6 6 6 6 6 6 6 6 5 5 5 5 5 5 4 4 3 3 3 3 2 2 2 2 3 2 2 2 2 2 2 2
12 13 12 12 12 12 10 10 10 9 9 8 8 9 8 8 7 7 7 6 6 6 6 6 6 6 5 5 5 5 5 4 4 3 3 3 3 2 2 2 2 2 2 1 2 1 1 1 1 1 1 1 1 1
12 12 12 12 11 10 10 10 9 8 8 8 9 9 9 7 7 7 8 7 7 7 7 7 6 6 5 5 5 4 3 3 2 2 2 2 2 2 2 2 1 1 1 1 1 1 1 1 1 1 1 0 0 -0
12 11 11 10 10 10 11 10 10 10 10 9 9 9 8 7 8 8 8 8 7 7 7 7 6 6 5 4 4 3 3 2 2 1 2 2 1 2 1 1 1 1 1 1 1 1 0 0 0 0 -0 -0 -1 -1
7 10 11 10 9 11 10 11 10 10 10 10 9 7 7 8 9 9 8 7 8 8 7 7 6 6 5 4 3 2 2 2 1 1 1 0 1 0 0 1 1 1 1 1 1 0 0 -0 -0 -1 -1 -1 -2 -1
10 11 11 10 10 10 9 9 8 10 11 11 10 9 9 9 9 9 9 8 8 8 8 7 6 6 5 4 3 2 1 1 1 -0 -1 -1 -1 -1 -1 -1 -1 -0 0 0 0 0 -0 -0 -1 -1 -1 -2 -2 -2
13 12 12 11 10 10 10 10 10 11 11 9 9 10 10 10 11 10 10 9 8 8 7 7 6 5 5 4 3 2 1 1 1 -0 -1 -2 -2 -2 -1 -1 -1 -1 -0 -0 -0 -1 -1 -1 -1 -1 -2 -2 -2 -3
12 13 12 11 10 10 10 11 12 11 11 9 11 11 10 10 10 10 10 9 8 8 7 7 6 5 4 3 2 2 1 1 0 -0 -1 -1 -1 -2 -2 -2 -2 -1 -1 -1 -1 -1 -1 -2 -2 -2 -2 -3 -3 -3
13 12 11 11 12 13 13 13 13 13 12 11 11 11 10 10 10 10 9 9 8 8 7 6 6 5 4 3 2 2 1 0 -0 -1 -1 -1 -2 -2 -2 -2 -2 -2 -1 -1 -2 -2 -2 -2 -2 -3 -3 -3 -3 -3
13 12 12 12 12 12 13 13 12 11 11 11 11 10 10 9 9 9 9 8 8 7 7 6 5 4 3 2 2 1 1 0 -0 -0 -1 -1 -2 -2 -2 -2 -2 -3 -3 -3 -2 -2 -3 -3 -3 -3 -3 -3 -3 -3
13 11 12 13 13 12 12 11 11 11 10 10 9 9 9 9 8 8 8 8 7 7 6 5 5 3 3 2 2 1 1 0 -0 -0 -1 -1 -1 -2 -2 -2 -2 -3 -3 -3 -3 -3 -3 -3 -3 -4 -3 -3 -4 -4
13 12 12 12 11 11 11 11 10 10 9 9 8 8 8 8 8 8 8 8 7 6 5 5 4 3 3 2 2 1 0 0 -0 -0 -1 -1 -1 -2 -2 -2 -2 -3 -3 -3 -3 -3 -4 -4 -4 -4 -4 -4 -4 -4

GFSWCAN_850_temp_030.txt.gz
Temp
7 7 7 7 6 6 6 7 6 7 6 6 5 5 5 4 3 3 2 2 2 1 2 3 4 3 4 3 4 5 5 7 7 5 9 10 11 12 12 13 14 14 13 14 14 15 15 20 21 20 20 20 20 20
7 7 7 7 7 6 7 6 7 7 6 6 5 5 5 5 3 3 3 3 2 2 2 2 3 3 3 3 3 2 4 5 6 6 7 7 8 9 10 11 14 12 14 15 15 16 18 18 19 19 17 17 18 18
7 6 7 6 6 6 7 7 7 7 6 6 6 5 5 5 4 4 3 3 3 1 1 2 6 6 4 4 3 3 3 3 4 6 6 6 6 11 10 12 12 13 14 14 14 15 16 16 16 15 16 16 16 16
7 6 6 6 6 6 7 7 7 7 7 6 6 5 6 4 4 4 4 3 3 2 1 5 4 5 5 4 4 3 4 4 4 3 3 3 5 9 8 11 11 13 13 13 13 14 14 14 14 15 15 15 16 16
7 7 7 7 7 7 7 7 7 7 7 7 7 7 7 5 4 4 3 3 3 3 3 3 3 5 5 4 4 3 3 3 3 2 3 3 4 5 8 9 9 11 12 12 13 14 13 13 13 14 14 15 15 16
7 7 8 7 7 8 7 7 8 8 8 8 8 7 7 7 6 4 4 3 3 2 2 4 6 5 5 4 3 3 3 2 1 1 1 2 3 3 4 6 11 10 10 10 12 11 12 12 12 11 12 13 14 16
8 8 8 8 8 8 8 8 9 9 8 8 8 8 7 6 5 4 4 3 3 2 2 2 6 6 4 4 3 2 2 2 1 0 0 1 2 2 3 4 6 6 5 5 8 9 8 9 9 10 11 13 14 15
9 9 9 9 8 8 8 9 10 9 9 8 7 7 6 5 4 4 3 3 2 2 1 3 5 6 4 4 4 3 2 0 0 0 0 1 1 1 3 4 5 5 4 3 4 5 6 7 9 10 11 12 13 13
10 9 9 9 9 9 10 10 10 10 9 7 7 6 5 4 4 4 3 3 2 2 2 1 3 4 3 3 4 3 2 2 1 2 1 1 2 3 2 5 7 9 9 5 4 4 5 7 8 9 11 12 11 12
10 9 10 10 10 10 10 11 10 10 8 8 6 6 6 4 3 3 3 2 2 2 1 1 1 3 2 4 5 5 4 4 4 4 4 2 3 4 4 6 6 7 7 8 8 8 8 9 9 10 11 11 11 12
10 10 10 10 10 11 11 11 11 10 9 6 7 7 6 5 4 4 3 3 2 3 2 2 2 3 3 4 5 5 5 4 7 8 7 5 5 5 4 5 5 6 6 7 9 9 9 9 10 10 10 11 11 11
10 10 10 11 11 11 11 11 10 10 9 9 8 7 6 7 8 8 7 5 4 6 6 4 6 4 4 4 5 7 8 9 9 9 8 5 6 5 4 5 5 6 6 6 6 8 9 10 10 9 10 10 9 8
11 10 11 11 11 11 11 11 10 10 10 9 8 8 8 6 6 5 5 6 7 9 9 8 8 8 8 7 10 11 11 9 10 7 5 7 7 6 5 5 5 6 6 7 7 7 7 7 8 8 8 7 7 8
11 11 11 11 11 12 12 11 10 10 9 9 9 6 9 7 6 6 8 8 9 10 11 10 10 9 9 10 9 9 9 11 9 6 6 9 7 6 6 6 6 5 5 6 7 8 7 7 8 8 9 8 9 8
11 11 11 11 12 12 12 12 11 10 10 9 9 8 10 9 10 11 10 11 11 10 12 13 13 13 12 10 9 8 10 7 6 7 7 7 6 6 6 6 7 7 7 7 7 7 7 8 7 7 8 8 8 8
12 12 12 12 12 12 13 12 12 10 9 10 9 10 10 11 12 11 11 11 11 12 12 13 12 11 11 9 6 5 7 6 7 6 6 7 5 6 6 6 7 6 6 7 7 7 7 6 6 6 8 8 8 7
12 12 12 13 13 12 12 13 10 10 10 10 11 10 10 10 11 11 10 10 11 12 13 12 9 8 11 9 6 5 5 4 4 6 6 5 4 6 6 6 6 7 6 7 7 7 7 7 7 7 6 5 8 8
12 12 12 13 13 13 12 11 11 11 11 10 11 10 10 10 10 10 10 10 10 11 10 10 10 10 9 8 8 9 7 6 7 6 5 5 5 5 6 6 5 6 6 6 6 6 6 7 7 7 7 7 6 6
13 13 13 13 13 12 12 11 11 12 11 11 10 11 10 10 10 10 10 10 10 10 10 10 10 9 10 9 8 8 7 7 7 7 6 5 5 5 6 6 6 6 6 6 5 6 6 5 5 6 6 6 6 5
13 13 13 13 13 12 12 11 11 12 12 11 10 11 10 10 10 10 10 9 10 10 10 10 10 9 8 7 7 7 6 6 7 7 7 6 6 6 5 6 6 6 6 6 6 4 5 5 5 4 4 4 4 4
13 13 13 13 13 12 11 12 12 11 12 12 10 10 11 11 10 10 10 9 9 9 9 8 8 7 6 5 5 6 5 5 6 6 6 6 6 6 6 5 5 5 5 5 5 5 4 4 4 4 4 4 4 3
13 13 13 12 11 12 11 11 12 11 11 12 11 11 12 12 11 10 9 10 9 8 8 8 7 7 7 6 5 4 4 4 4 5 5 5 5 5 5 5 5 5 4 4 4 4 4 3 3 3 4 3 3 2
12 13 12 12 12 11 11 10 12 11 12 12 11 12 12 11 10 9 10 9 9 8 7 7 6 5 5 5 5 4 4 4 5 4 4 4 5 4 4 4 4 4 4 3 3 3 3 2 3 3 3 3 3 3
12 12 11 12 12 11 11 12 11 12 11 12 12 12 12 11 9 11 11 10 9 8 8 7 7 7 7 5 6 5 4 4 4 4 3 3 4 4 4 4 3 3 3 3 3 3 3 3 2 3 2 2 2 2
11 11 12 11 11 13 14 14 13 13 13 13 12 13 12 10 12 12 11 11 10 9 8 8 7 7 7 7 6 5 3 3 3 3 3 2 3 3 4 3 3 3 2 3 3 3 2 2 2 2 2 1 1 1
8 12 12 13 13 14 14 14 14 14 14 13 13 12 11 11 12 12 12 10 10 9 9 8 8 7 7 6 5 5 4 3 3 3 2 1 2 2 2 2 3 3 1 1 2 2 2 2 2 1 1 1 -0 0
11 14 12 12 12 12 13 13 13 14 14 14 14 13 13 12 12 13 11 10 9 9 8 7 7 7 6 5 4 3 3 2 1 1 1 1 0 0 0 1 1 0 0 1 2 2 2 2 1 1 1 1 0 -0
14 13 15 14 12 13 14 14 14 14 15 14 13 13 13 13 14 13 11 10 9 8 7 7 6 6 5 4 4 3 3 2 2 1 1 1 0 0 -0 -0 -0 -1 -1 -0 0 1 1 1 1 0 0 0 0 -0
14 14 13 14 14 14 14 15 15 15 14 14 14 15 14 13 11 11 10 9 8 7 7 6 5 5 4 3 3 3 2 3 2 2 2 2 1 1 -0 -0 -0 -0 0 0 -0 -1 -1 -1 -1 -1 -1 -1 -1 -1
16 14 15 15 15 16 16 15 15 14 13 13 13 12 11 11 10 10 10 9 9 7 7 7 6 5 5 5 5 3 2 2 2 2 2 1 1 0 -0 -0 -0 -0 -0 0 0 -0 -1 -1 -1 -1 -1 -1 -1 -2
14 14 15 15 16 16 14 13 11 11 11 12 11 11 12 10 9 9 9 9 7 7 6 6 6 5 5 5 4 4 4 2 1 0 0 0 0 -0 -0 -1 -1 -1 -1 -1 -1 -1 -1 -2 -2 -2 -2 -2 -2 -2
14 15 15 16 17 14 12 13 14 13 12 12 12 11 10 10 10 8 8 8 7 7 6 6 6 5 4 3 3 2 2 2 1 1 0 0 0 -0 -1 -1 -1 -1 -1 -2 -2 -2 -2 -2 -3 -3 -3 -3 -3 -3
15 15 15 15 16 15 14 13 13 13 13 13 13 11 11 11 11 7 7 7 6 7 6 6 5 4 3 2 2 2 1 1 0 -0 -0 -1 -1 -2 -1 -1 -1 -2 -2 -2 -2 -2 -3 -3 -3 -3 -3 -3 -3 -3

GFSWCAN_850_temp_033.txt.gz
Temp
7 7 7 7 6 6 7 7 6 6 6 6 6 5 5 5 3 3 3 3 2 2 2 3 4 4 5 6 5 7 8 9 10 8 10 10 13 14 15 16 17 16 16 17 18 18 18 23 23 23 22 21 21 21
7 7 7 7 7 7 7 7 6 6 7 6 6 6 6 4 4 4 4 4 3 2 3 4 4 4 5 5 5 3 7 8 9 7 8 10 11 12 13 13 17 15 17 18 18 19 20 21 21 21 21 19 19 19
7 7 7 7 7 7 7 7 7 7 7 7 6 6 5 4 4 4 4 4 3 2 2 2 6 5 5 5 5 4 5 5 6 7 8 7 7 12 11 13 14 16 17 17 17 18 18 18 19 19 19 18 18 18
7 7 7 7 7 8 8 7 7 8 7 7 8 7 5 4 4 4 4 4 3 2 2 5 6 6 6 6 6 5 5 4 4 5 5 6 8 10 10 12 12 14 15 15 15 17 17 17 17 17 17 17 17 17
8 8 8 8 8 8 8 8 8 8 8 8 8 7 6 6 6 5 4 4 3 3 3 5 5 6 6 6 6 5 4 3 3 3 3 3 4 5 8 11 11 13 13 13 14 15 15 16 16 16 16 16 16 16
8 8 8 9 9 9 9 9 9 9 9 8 8 8 7 7 6 4 4 4 3 3 2 4 7 5 4 4 3 3 3 3 2 1 2 2 3 3 4 6 10 9 8 9 11 12 13 13 13 14 14 15 15 15
9 9 9 9 9 10 10 9 9 9 9 8 8 7 7 6 5 5 5 4 3 2 2 3 6 6 4 4 3 3 2 2 1 0 -0 1 1 2 3 4 7 6 5 4 6 7 9 10 12 13 13 14 13 13
9 9 9 10 10 10 9 9 10 10 9 7 7 7 7 6 5 4 4 4 3 2 2 3 5 5 4 4 4 3 1 1 0 0 0 1 1 1 3 4 3 4 7 8 4 4 7 8 9 10 11 12 12 13
10 10 10 10 10 10 10 10 10 10 9 7 7 7 6 5 4 4 3 3 2 2 2 2 4 5 3 4 4 3 2 3 1 2 1 1 2 3 2 4 6 7 8 9 7 5 5 6 8 9 10 9 10 13
10 10 10 10 10 11 11 10 10 10 9 8 7 6 7 5 4 4 3 3 3 3 2 2 2 4 3 4 5 5 4 5 5 6 3 4 2 5 5 5 6 6 9 9 7 6 6 6 7 8 10 10 10 12
11 11 10 10 11 11 10 10 10 10 8 8 10 9 6 6 5 5 9 5 5 6 6 5 3 5 4 5 6 6 7 6 8 10 9 6 5 5 5 5 6 6 6 6 7 7 8 9 9 10 9 9 10 11
11 11 11 11 11 11 11 11 10 10 9 9 9 8 7 8 9 11 9 7 7 9 10 10 9 5 6 5 6 10 12 13 11 12 9 6 6 7 6 6 6 6 6 6 6 6 6 7 7 7 7 8 7 8
11 11 11 11 11 12 12 11 10 10 10 9 10 11 10 10 10 8 7 7 8 11 12 12 13 12 10 7 11 14 13 12 13 9 5 7 8 8 7 7 7 7 6 6 7 6 6 6 7 7 6 7 7 7
12 12 12 12 12 12 12 12 10 11 11 11 11 8 12 12 13 10 11 13 14 14 14 13 15 14 14 13 13 12 13 13 10 7 7 9 8 8 8 8 8 8 9 8 7 6 5 5 6 6 7 7 8 7
12 12 12 12 12 12 12 13 11 12 12 12 12 10 13 14 14 14 14 14 14 14 15 15 16 16 15 12 12 10 11 8 7 7 8 8 8 8 8 8 8 8 9 9 8 8 7 6 5 5 5 5 5 6
13 12 13 13 13 13 13 12 12 12 12 13 13 14 14 15 15 15 14 14 14 15 15 15 15 14 14 13 10 6 7 6 5 6 7 7 7 7 8 8 8 8 8 9 8 8 8 8 8 6 6 6 5 5
13 11 13 13 13 13 13 13 13 12 12 13 14 14 13 13 14 13 13 13 13 14 16 15 12 11 13 12 9 9 7 7 6 7 8 7 7 7 8 8 8 8 8 8 8 8 8 9 8 8 7 7 6 5
13 13 13 13 13 13 13 13 13 13 14 14 14 14 13 13 13 13 13 12 13 13 13 13 13 13 11 9 9 10 10 10 8 8 8 7 7 7 7 7 8 7 8 7 7 8 7 8 9 8 8 8 8 7
13 14 13 13 13 13 14 13 13 14 14 14 14 14 13 13 12 12 12 12 12 12 13 13 13 12 12 11 10 10 10 9 10 8 8 8 8 7 7 7 8 8 8 7 7 8 8 7 7 7 8 8 7 7
14 14 14 14 13 14 14 14 13 14 15 14 14 13 13 13 13 13 12 12 12 12 12 13 12 11 10 9 8 8 8 8 8 9 9 9 9 9 8 7 7 8 8 8 8 6 7 7 7 7 6 6 6 5
14 13 13 13 13 14 14 15 15 14 14 15 14 13 13 14 14 13 13 12 12 12 12 11 10 9 8 7 7 7 7 6 7 7 7 8 7 8 8 7 7 7 7 7 7 7 6 6 6 6 6 6 5 5
12 13 13 12 14 13 14 14 14 14 14 14 15 14 15 15 14 13 12 13 12 11 10 10 9 8 9 7 6 6 5 5 7 7 7 7 8 7 7 7 7 7 7 6 6 6 6 5 5 6 5 5 5 5
13 13 12 13 14 13 13 13 14 14 15 15 15 15 15 14 13 12 13 13 12 10 10 9 8 7 7 7 7 7 6 6 7 7 7 6 7 7 7 7 6 6 6 6 6 6 6 4 5 5 5 5 5 5
13 12 13 15 14 13 14 15 15 15 15 15 16 15 15 14 13 14 14 13 12 11 11 9 9 9 9 8 9 8 6 6 7 7 6 6 6 6 6 6 6 6 5 5 6 6 5 5 4 5 4 4 4 4
12 13 13 12 14 15 16 16 16 16 16 16 15 16 15 13 15 15 14 14 13 12 11 11 10 10 10 9 9 8 6 6 6 6 6 5 5 6 6 6 6 5 4 4 5 5 5 5 4 4 4 3 2 3
8 14 13 16 16 16 17 16 17 17 17 16 16 15 14 15 14 14 15 13 13 12 11 10 10 10 10 9 8 7 6 5 5 5 5 4 4 4 4 4 5 5 3 4 4 4 4 4 4 3 4 3 2 3
12 17 16 15 15 16 17 17 16 17 17 16 17 16 15 14 15 15 14 12 12 11 10 9 9 9 8 8 7 6 5 5 4 3 3 3 3 3 3 3 3 2 2 3 3 3 3 3 3 3 3 3 2 2
17 16 17 17 16 17 17 17 17 17 17 17 16 15 14 15 15 15 14 12 11 10 10 9 8 8 8 7 7 6 6 5 5 4 5 4 4 3 2 2 2 1 1 2 1 2 2 2 2 2 2 2 1 0
16 17 17 17 17 17 17 17 17 16 17 17 17 17 16 15 14 14 13 12 11 10 9 8 8 7 6 7 6 5 5 5 5 5 5 5 4 4 3 2 2 2 2 2 1 1 0 0 0 0 1 1 0 -0
17 18 17 17 18 18 17 16 18 17 17 16 16 16 15 15 13 11 11 11 10 9 8 8 8 8 7 8 7 7 6 5 4 4 4 4 3 3 2 2 2 2 2 2 2 1 0 0 0 -0 -0 0 0 -0
18 18 17 18 18 18 18 17 17 16 15 16 16 15 15 14 11 10 10 9 9 9 9 9 9 8 8 7 6 6 6 5 4 3 2 3 3 2 2 1 1 1 1 0 0 0 0 -0 -0 -1 -1 -1 -1 -1
18 18 18 18 18 18 17 17 17 17 17 16 16 15 14 13 11 10 8 9 9 10 9 8 9 8 6 6 5 5 3 4 4 3 2 2 2 1 1 1 1 0 -0 -0 -1 -1 -0 -1 -1 -1 -1 -1 -1 -1
18 18 18 18 18 18 18 17 17 16 16 16 16 14 15 14 11 9 7 8 8 9 9 8 7 6 4 4 4 4 3 3 2 1 1 0 -1 -1 -0 0 0 0 0 -0 -1 -1 -1 -1 -2 -2 -2 -2 -2 -2

GFSWCAN_850_temp_036.txt.gz
Temp
7 8 7 7 7 7 7 7 7 7 6 6 6 6 6 5 3 4 4 3 3 2 2 3 3 3 4 5 5 7 8 6 9 8 8 7 11 10 14 17 15 17 16 16 18 18 18 22 24 21 21 20 21 21
8 7 7 7 7 7 7 7 7 7 7 7 7 6 6 4 4 4 4 4 4 3 3 4 4 3 3 4 5 4 7 7 8 6 7 9 10 12 13 14 17 15 16 17 19 19 21 21 21 21 21 21 20 19
8 8 8 8 8 8 8 8 8 8 8 8 8 7 6 4 4 4 4 4 3 3 3 3 4 5 5 4 5 4 6 7 7 7 8 9 8 12 11 13 13 15 15 15 17 18 19 19 19 20 19 19 19 19
8 8 8 8 9 8 8 8 9 9 8 8 8 7 6 4 4 4 4 4 4 3 2 6 6 5 5 5 5 5 5 5 5 5 5 6 7 10 10 11 12 13 14 14 15 16 17 17 18 18 18 18 18 18
8 9 9 9 9 9 9 9 9 9 9 9 9 8 7 7 6 5 5 4 4 3 4 5 5 5 4 4 4 5 4 4 3 3 3 4 5 5 8 10 11 12 12 12 13 14 14 15 16 16 17 17 17 17
9 9 9 9 9 10 10 10 9 9 9 9 8 8 7 7 6 5 5 4 4 3 3 4 6 5 4 4 3 3 3 2 2 1 1 2 2 2 4 5 9 8 8 7 9 9 10 10 11 13 14 15 16 16
9 10 10 10 10 10 10 10 10 10 9 8 8 7 7 6 6 6 5 4 3 3 3 4 7 5 5 4 3 3 3 2 1 0 -0 -0 0 1 2 3 4 3 3 3 3 3 5 7 9 11 12 14 15 15
10 10 10 10 10 10 10 10 10 10 9 8 7 7 7 6 5 5 4 4 3 3 3 5 7 7 6 5 5 3 2 1 1 1 0 0 0 0 3 3 5 7 7 7 8 6 5 7 8 10 12 13 13 14
10 10 10 10 10 10 11 10 10 10 9 8 8 7 7 6 6 5 4 4 4 4 4 4 5 8 5 5 5 3 3 4 2 2 1 1 1 3 4 5 5 6 7 7 8 6 9 6 7 9 11 11 11 13
10 11 11 10 10 11 10 10 10 9 9 9 8 6 7 6 6 5 5 5 4 4 4 6 4 6 5 6 6 6 4 7 7 8 3 4 4 5 5 5 5 5 6 6 8 7 5 6 7 9 10 11 11 12
11 11 11 11 11 11 11 11 10 10 10 9 8 11 8 7 6 6 9 10 10 9 8 10 8 8 7 8 8 8 9 8 10 11 10 6 5 6 7 6 5 4 5 5 6 6 7 7 8 9 9 10 10 10
11 12 11 11 11 11 11 11 10 10 10 10 10 9 8 8 10 13 11 10 10 11 13 13 11 8 10 7 7 10 12 14 12 11 6 5 6 7 8 8 7 6 5 4 5 5 5 6 6 6 7 7 7 7
12 12 11 11 12 12 11 11 11 10 10 10 11 12 13 13 10 8 9 11 12 13 14 14 11 11 12 11 11 14 14 12 14 10 6 7 7 7 8 8 8 8 6 5 5 5 5 5 6 5 5 5 6 6
12 12 12 12 12 12 12 12 12 12 12 14 14 7 15 15 16 16 16 15 15 15 15 15 14 13 15 14 15 13 13 14 11 7 7 8 8 7 8 8 8 8 8 7 6 5 5 5 4 5 5 5 5 5
12 13 13 13 13 13 12 12 12 13 13 14 15 10 15 16 17 16 16 16 15 16 16 13 15 16 16 14 14 12 11 7 7 7 8 9 8 7 7 8 8 8 8 8 8 7 6 5 5 5 5 5 5 5
13 12 13 13 13 13 13 13 13 13 14 15 16 16 16 16 16 16 15 15 15 16 16 16 16 14 13 13 12 11 8 7 7 7 7 9 7 7 8 8 8 8 8 8 8 8 8 7 6 5 4 4 3 4
13 12 13 13 13 13 13 13 14 14 15 16 16 16 15 15 15 15 14 14 14 15 16 16 14 13 13 12 10 11 10 10 9 9 9 8 7 7 8 8 8 8 8 8 8 8 8 8 8 6 6 6 5 5
13 13 13 14 14 14 14 15 15 15 16 16 17 16 15 15 14 14 14 14 14 15 15 15 15 14 12 11 11 12 12 11 10 9 9 8 8 8 8 8 8 8 8 8 8 9 8 8 9 8 7 7 7 7
14 14 14 14 14 14 15 15 15 16 16 16 16 16 15 15 14 14 14 14 14 14 14 14 14 13 13 11 11 10 10 9 10 10 10 9 9 9 9 8 8 9 9 8 8 9 8 8 8 8 8 7 6 6
14 14 14 14 14 13 16 16 15 16 17 16 16 15 15 15 15 15 14 14 14 14 13 13 13 12 11 10 9 9 9 8 8 9 9 9 9 9 9 9 8 9 9 9 8 8 8 8 8 7 7 7 6 6
13 13 14 14 13 15 15 16 16 16 16 16 16 15 15 16 16 15 15 14 14 13 13 12 11 11 9 8 8 7 8 7 7 8 8 8 8 9 9 9 8 8 8 8 8 8 7 6 7 7 7 7 6 6
12 13 13 13 15 15 16 16 16 15 16 16 16 16 16 16 16 15 14 15 14 12 12 11 10 9 10 8 8 7 7 7 7 8 8 8 8 9 9 8 8 8 8 8 7 7 6 6 6 6 6 6 6 5
13 13 13 15 15 14 15 15 16 16 16 16 16 17 17 16 15 14 15 15 14 12 12 11 10 9 8 9 9 8 8 7 8 8 8 8 8 8 8 8 8 8 7 7 7 7 7 6 6 6 5 5 6 6
12 12 15 16 16 14 16 16 17 17 17 16 16 16 16 16 15 15 16 15 14 13 12 11 11 11 11 9 10 10 9 8 8 8 8 7 7 7 7 8 8 7 6 6 7 7 7 6 6 6 5 4 5 5
12 14 14 13 15 17 18 18 18 18 18 18 17 17 16 16 15 16 16 16 15 13 12 12 11 11 11 11 10 10 8 8 7 7 7 6 6 6 7 7 7 6 5 6 6 6 6 6 5 5 5 4 4 5
7 15 13 18 18 18 18 18 18 18 19 18 18 17 16 16 16 15 16 15 14 13 12 11 11 10 10 10 10 9 8 7 6 6 6 5 5 5 5 5 6 5 4 5 5 5 5 5 5 5 5 4 3 3
10 18 17 17 17 18 18 18 18 18 18 17 18 18 13 8 14 16 14 14 14 12 11 10 9 9 9 9 8 8 8 7 6 5 5 5 5 5 4 4 4 3 3 4 4 4 4 4 4 4 4 3 2 2
17 18 18 17 17 18 16 11 10 12 11 12 18 16 14 14 15 13 14 14 13 12 10 9 9 9 9 8 8 7 7 7 7 7 7 6 5 5 4 4 4 3 3 3 2 3 2 3 3 3 3 2 1 1
17 16 16 18 17 17 13 10 9 14 15 17 18 18 17 12 13 10 13 13 12 11 9 9 9 9 9 9 8 8 8 7 7 6 6 6 6 5 4 4 3 3 3 2 1 1 1 1 1 1 1 1 1 1
18 16 17 19 19 18 16 16 17 18 18 18 17 17 14 13 13 13 13 12 11 11 10 10 10 10 9 9 9 8 8 8 7 6 5 5 5 4 4 3 3 2 2 2 2 1 1 1 1 1 1 1 1 1
18 18 19 18 18 19 17 17 18 19 18 17 15 15 11 10 9 10 11 11 11 11 11 11 10 9 9 8 8 7 7 6 5 4 4 4 4 3 3 2 2 2 1 1 1 1 1 1 1 0 -0 -0 -0 -0
19 19 19 20 20 19 19 18 18 18 18 18 17 16 15 12 11 11 9 10 11 11 10 10 9 8 7 7 6 5 5 4 3 3 2 2 2 1 2 2 2 2 1 1 1 0 -0 -0 -0 -0 -0 -1 -1 -1
19 19 19 19 19 19 18 18 18 18 18 17 13 13 15 13 12 11 10 9 9 10 9 9 8 7 6 6 5 5 4 3 3 2 2 1 0 0 0 0 0 1 1 0 -1 -1 -1 -1 -1 -1 -1 -1 -1 -1

GFSWCAN_850_temp_042.txt.gz
Temp
9 9 8 8 8 8 8 8 8 8 8 8 7 7 6 4 4 4 4 4 4 3 4 4 3 3 3 3 3 4 4 4 4 3 4 4 5 5 6 6 6 7 7 7 9 11 10 11 11 11 11 14 15 16
9 9 9 8 8 8 9 9 9 9 8 8 7 6 4 4 4 4 4 4 4 4 4 4 4 4 4 4 3 4 3 4 4 2 2 4 4 5 7 7 9 6 6 6 7 8 11 11 9 10 10 11 11 12
9 9 9 9 9 9 9 9 9 9 8 8 8 6 5 4 4 5 4 4 4 4 4 5 4 4 4 4 3 3 4 4 4 4 3 3 5 5 4 6 7 8 8 7 5 10 8 10 12 10 9 10 11 12
9 9 9 9 10 10 9 9 9 9 9 8 8 8 7 7 5 5 5 4 4 3 3 6 5 5 4 3 3 4 4 3 3 3 3 3 4 3 3 4 4 6 6 5 5 7 7 10 10 8 8 10 12 13
10 10 9 10 10 10 10 10 10 9 9 9 8 8 7 7 6 5 5 4 4 4 4 6 6 5 5 4 3 3 4 3 3 2 2 3 3 3 2 2 5 4 4 4 5 5 5 5 6 7 6 8 11 11
10 10 10 10 10 10 10 10 10 10 9 8 8 8 7 7 6 5 5 4 4 5 4 3 7 6 5 5 4 3 3 2 2 1 1 1 2 2 2 3 4 4 4 4 6 5 6 6 6 7 6 9 11 11
10 10 11 11 10 11 11 10 10 10 9 8 8 7 7 6 6 6 6 6 5 5 5 6 6 8 7 6 6 5 5 3 1 1 1 1 1 2 2 2 3 4 4 4 4 6 6 8 7 7 6 7 7 9
11 11 11 11 11 11 11 10 10 10 9 8 8 7 7 7 7 7 6 6 5 5 4 5 6 7 8 7 5 5 4 3 2 2 1 1 1 0 2 3 5 4 4 4 4 4 5 6 6 7 7 6 7 8
11 11 11 11 11 11 11 10 10 10 9 8 8 7 7 7 7 7 7 6 5 4 6 6 6 7 7 6 5 4 4 4 3 3 2 2 1 4 4 5 5 4 3 3 4 4 4 5 5 7 7 7 5 7
11 11 12 11 11 12 11 11 10 10 9 9 8 8 9 8 8 7 7 6 6 6 5 5 7 6 7 7 6 6 4 6 6 4 3 2 4 7 7 6 5 5 4 3 4 4 4 4 4 6 7 7 7 7
12 12 12 12 11 12 11 11 10 10 10 9 9 9 9 9 8 8 7 7 8 6 7 8 8 7 8 7 7 7 6 6 3 5 6 5 5 6 7 8 6 5 5 5 4 4 4 3 3 4 5 6 7 8
12 12 12 12 12 12 12 11 11 11 10 10 9 9 9 9 8 7 7 9 6 6 10 8 10 8 8 8 7 8 7 6 7 6 5 5 4 7 7 8 8 6 6 5 4 4 4 4 3 3 3 3 4 5
13 13 13 13 12 12 12 12 12 11 11 10 10 10 10 11 8 9 6 8 8 12 14 13 9 11 8 8 8 6 10 8 8 5 4 6 7 7 8 8 8 7 6 5 5 4 3 4 3 3 3 2 2 3
13 13 13 13 12 12 13 13 12 12 11 11 10 8 10 10 10 10 9 9 14 14 14 13 12 11 11 8 9 9 7 6 6 6 5 5 7 7 8 8 8 8 7 6 5 5 4 3 3 2 2 2 2 2
14 14 14 13 13 13 13 13 13 12 12 12 14 9 11 14 14 14 14 14 14 14 14 13 12 12 9 10 7 7 8 6 6 6 6 8 8 7 8 8 8 8 8 6 6 5 5 4 3 3 2 2 2 2
14 14 14 14 14 13 13 13 13 13 13 14 15 14 15 13 13 14 14 14 14 14 15 14 10 9 9 7 9 8 5 4 6 7 9 8 8 7 8 8 8 8 8 8 6 6 6 5 4 4 3 3 3 3
14 13 14 14 14 14 14 13 13 14 14 15 15 15 15 14 14 14 14 14 14 14 9 11 11 11 8 8 8 7 5 5 8 8 8 8 8 8 8 8 8 8 8 8 7 7 6 5 5 4 4 3 3 4
13 13 13 14 14 14 14 14 14 15 15 16 15 15 15 15 15 14 14 14 14 13 13 11 12 8 8 8 6 6 7 8 8 8 8 9 8 8 8 8 8 8 8 8 7 7 7 6 6 6 6 4 4 4
14 14 14 14 14 14 14 15 15 15 16 16 16 16 16 15 15 14 14 14 13 13 13 12 8 7 6 8 7 8 8 7 7 8 8 8 8 8 8 8 8 8 8 7 7 7 7 7 6 6 6 6 5 5
14 14 13 14 14 14 14 16 15 15 15 16 16 16 16 16 15 15 14 14 14 13 12 8 8 9 9 9 8 8 8 7 7 8 8 8 8 8 9 8 8 8 7 7 7 7 6 6 6 6 6 5 5 5
14 13 14 14 14 14 14 15 16 16 16 16 16 16 16 16 15 15 14 14 13 12 10 11 11 10 10 9 9 9 8 8 8 8 8 8 8 8 8 8 8 8 7 6 6 6 6 6 6 5 5 5 5 4
13 13 13 13 13 15 15 15 15 16 15 16 16 16 16 15 14 14 14 14 13 12 12 11 11 10 10 9 9 9 8 8 8 8 8 7 7 7 7 8 7 7 7 6 6 6 6 5 6 5 5 5 4 4
13 13 13 14 14 15 15 15 15 16 14 15 16 15 14 13 11 12 13 13 12 13 12 11 11 11 10 10 9 8 8 8 7 7 7 7 7 7 7 6 6 6 6 6 6 6 5 5 5 5 4 4 4 3
12 12 13 14 14 14 16 15 15 16 16 14 13 13 11 9 10 10 8 9 11 11 11 11 11 11 10 9 9 8 8 8 7 6 6 6 6 6 5 6 6 5 5 5 5 5 5 5 4 4 4 3 3 2
11 13 13 13 15 15 14 15 12 12 12 12 13 12 9 9 8 7 8 9 10 10 10 10 10 10 9 9 8 8 8 7 7 7 6 5 5 5 5 5 5 5 5 4 4 4 4 4 4 4 3 3 2 2
5 14 14 15 15 14 12 12 11 10 10 10 10 11 9 8 8 8 7 9 10 10 9 9 10 9 9 9 8 8 8 7 7 7 6 5 5 5 4 4 4 3 3 4 4 4 3 3 3 3 2 2 2 2
7 13 15 16 16 14 12 11 10 10 10 11 11 11 9 7 6 8 10 10 10 10 9 10 9 9 9 8 8 8 8 7 7 6 6 5 5 4 4 4 4 3 3 3 3 3 3 3 2 2 2 2 2 1
14 16 15 16 15 14 11 10 9 11 11 12 10 7 8 7 6 10 10 10 10 10 10 10 9 9 9 8 8 8 8 7 7 6 5 4 4 4 4 3 3 3 3 2 2 2 2 2 1 2 1 1 1 1
15 17 17 15 14 13 12 11 12 13 13 13 9 8 7 8 10 10 11 10 10 10 10 10 9 9 9 7 7 7 7 7 6 5 5 4 3 3 3 3 2 2 2 2 2 2 1 1 1 1 1 1 1 1
16 17 17 17 16 14 16 15 14 14 13 12 11 9 9 9 10 10 11 11 11 10 10 9 8 8 7 7 6 6 5 5 5 5 4 3 3 2 2 2 2 2 2 1 1 1 1 1 1 0 -0 0 0 0
18 17 16 16 16 18 18 14 13 13 13 12 10 10 9 10 10 10 10 10 10 10 9 8 8 7 7 6 6 5 5 4 4 3 3 2 2 2 2 2 2 1 1 1 0 0 0 -0 -0 -0 -0 -0 -0 -1
18 17 17 14 17 18 16 15 14 12 11 10 9 10 10 10 10 10 10 10 9 9 8 8 7 6 6 5 5 4 3 3 2 2 1 1 1 0 1 1 1 0 0 0 -0 0 -1 -0 -0 -0 -0 -1 -1 -1
19 19 19 18 18 19 19 18 17 11 11 11 10 11 11 11 10 10 9 9 8 8 7 7 6 6 5 5 4 3 3 3 2 1 1 0 0 -0 -0 -0 -1 -1 -1 -1 -1 -1 -1 -1 -1 -1 -1 -1 -1 -1

GFSWCAN_850_temp_045.txt.gz
Temp
9 9 9 9 9 9 9 9 9 8 8 8 7 6 4 4 4 4 4 4 4 4 4 4 3 3 3 3 2 3 3 4 3 3 4 3 4 4 5 5 6 6 7 7 7 9 10 9 10 10 9 11 9 9
9 9 9 9 9 10 9 9 9 8 8 8 8 5 4 4 4 5 4 4 4 4 4 5 4 4 4 4 3 3 3 4 3 3 3 3 4 4 4 5 6 6 5 5 5 8 9 8 9 8 8 8 8 8
9 9 9 10 10 9 9 9 9 9 8 8 8 7 5 4 5 5 4 4 4 3 5 6 5 4 4 4 4 3 3 3 4 3 3 3 4 3 4 4 6 6 6 4 5 7 6 7 8 8 8 7 7 9
10 9 10 10 10 10 9 9 9 9 9 9 8 7 7 6 6 5 5 4 4 3 4 7 6 5 4 4 3 3 3 3 3 3 2 2 4 3 4 3 4 4 4 4 6 7 6 8 8 8 9 9 9 11
10 10 10 10 10 10 10 9 10 10 9 9 8 7 7 6 6 5 6 5 5 4 5 7 6 5 5 4 4 4 4 3 3 2 2 3 2 2 2 2 4 4 4 5 5 5 5 5 8 7 7 8 9 10
10 10 10 11 10 10 10 10 10 10 9 8 8 7 7 6 5 5 6 6 6 5 5 5 8 7 5 5 5 5 4 4 2 1 1 1 1 2 3 4 4 4 4 4 4 4 6 6 6 7 7 7 8 9
11 11 11 11 11 10 10 10 10 9 9 9 7 7 7 6 6 6 6 6 5 6 6 6 6 8 6 6 5 4 4 4 2 1 1 1 1 1 1 4 4 4 4 4 4 4 5 5 5 6 6 6 6 7
11 11 11 11 11 11 10 10 10 9 9 8 8 7 7 7 7 7 7 6 5 5 5 5 6 7 7 6 5 5 4 3 3 2 2 1 1 1 3 5 5 4 4 4 3 3 3 4 5 6 7 7 7 7
11 11 11 11 12 11 11 10 10 9 9 8 8 7 7 7 7 7 7 6 5 5 5 5 6 7 7 7 6 5 5 4 3 3 3 2 2 4 4 5 5 4 3 3 3 3 3 3 4 5 7 7 6 6
11 11 12 12 12 11 11 10 10 10 9 9 8 8 8 8 7 7 6 6 5 5 5 4 6 6 7 7 6 6 4 6 6 4 3 3 3 6 7 6 5 5 4 3 3 3 3 3 3 3 3 5 6 6
11 12 12 12 12 12 11 11 11 10 10 9 9 8 8 8 7 7 6 5 6 5 6 7 7 6 7 7 7 7 6 5 3 6 6 4 4 5 7 7 6 5 4 4 3 2 3 3 2 2 2 3 5 6
12 12 12 12 12 12 12 11 11 11 10 10 9 9 8 8 7 6 6 7 5 6 9 8 9 7 7 8 7 7 6 5 6 4 5 5 4 7 7 7 7 6 5 5 5 4 2 3 3 2 2 2 2 3
12 12 13 12 12 12 12 12 12 12 11 10 9 9 9 9 7 9 6 8 7 11 13 11 9 9 7 7 7 6 8 5 5 5 4 4 6 7 7 7 7 7 5 5 5 5 4 3 2 2 2 2 2 2
12 13 13 13 12 12 12 12 12 12 11 11 10 6 8 9 10 8 7 7 13 12 12 11 10 10 8 7 6 8 5 5 5 6 4 3 7 7 8 8 8 7 6 6 5 5 5 3 3 3 3 2 2 2
13 14 14 13 13 13 13 13 13 12 12 12 11 8 10 13 13 13 13 12 13 13 12 11 11 11 7 8 5 6 7 4 5 4 4 7 8 7 8 8 8 7 7 7 6 6 5 5 4 3 3 3 3 2
13 14 14 13 13 13 14 13 13 13 12 12 12 12 13 12 12 13 13 13 13 13 12 12 8 8 8 6 8 7 5 3 4 5 7 8 8 8 8 8 8 8 7 7 6 5 5 5 4 4 3 3 2 2
13 13 13 14 14 14 14 13 13 13 13 14 14 14 14 14 13 14 13 14 13 13 8 8 10 10 7 7 7 4 3 3 7 8 8 8 8 8 8 8 8 7 8 7 7 6 5 5 4 4 4 3 3 3
14 14 13 14 14 14 14 13 13 14 14 15 14 15 15 15 15 14 14 14 13 13 12 10 10 7 7 8 5 4 7 7 7 7 8 8 8 8 8 8 8 7 7 7 7 7 6 6 5 5 5 4 4 3
14 14 14 14 14 14 14 14 14 14 15 15 15 15 15 15 15 15 14 14 13 13 12 11 7 6 5 6 7 8 7 7 7 7 8 8 8 8 8 8 8 7 7 7 6 6 6 6 5 5 5 5 4 4
14 14 13 13 13 13 13 14 14 15 14 16 15 15 15 15 15 15 14 13 13 13 11 8 7 9 9 9 9 8 8 8 7 8 8 8 8 8 8 8 8 7 7 7 6 6 6 6 5 5 5 5 5 4
14 13 13 13 13 13 13 14 15 15 15 15 16 15 15 14 13 14 13 12 12 11 9 11 11 11 10 9 9 9 8 8 8 7 7 8 7 7 8 8 7 7 7 6 6 6 6 5 5 5 5 4 4 4
13 13 13 13 13 13 13 15 15 15 15 15 15 14 13 11 11 12 12 11 11 11 11 11 11 10 10 10 9 9 8 8 8 8 7 7 7 7 7 7 6 6 6 6 6 6 5 5 5 5 5 4 4 4
12 12 13 13 13 14 15 15 15 15 13 13 14 12 10 10 10 10 10 10 10 10 10 10 9 8 10 10 9 8 8 8 8 7 6 6 6 6 6 6 6 6 6 6 6 5 5 5 5 5 4 3 3 3
12 12 12 13 13 13 15 15 14 14 13 12 10 12 8 8 9 8 8 9 10 10 9 9 8 9 10 10 9 8 8 7 8 7 6 6 6 5 5 5 5 5 5 5 5 5 5 4 4 4 3 3 3 2
11 12 12 12 13 13 12 12 12 11 10 9 10 8 8 8 7 7 7 9 9 9 10 10 9 9 9 9 8 8 8 7 7 7 6 5 5 5 5 4 4 4 4 4 4 4 4 3 3 3 3 3 2 2
6 12 12 13 14 12 12 11 10 9 8 9 9 8 8 7 8 7 8 9 9 10 9 9 9 9 8 8 8 8 8 7 7 6 6 6 5 5 4 4 4 4 3 3 3 3 3 3 3 2 2 2 1 1
7 12 14 15 14 13 11 10 10 9 10 10 8 7 8 7 7 7 10 10 10 10 9 9 8 8 8 8 8 7 7 7 6 6 5 5 5 4 4 4 4 3 3 3 3 3 3 2 2 2 2 1 1 1
12 14 12 15 14 13 11 9 9 9 9 10 8 7 8 8 7 10 10 9 9 9 9 9 8 8 8 7 7 8 7 7 6 5 4 4 3 3 3 2 3 3 2 2 2 2 2 2 1 1 1 1 1 0
13 15 15 14 13 12 12 10 11 12 12 10 8 7 8 9 10 10 10 11 11 10 9 8 8 7 7 7 7 7 6 6 6 5 4 3 3 2 2 2 2 1 2 2 1 1 1 1 1 1 0 -0 -0 0
15 16 16 15 13 12 15 14 13 12 12 11 11 10 10 10 10 10 10 11 10 10 9 8 7 8 7 6 6 5 4 4 4 4 3 2 2 1 2 0 1 1 1 1 1 0 0 0 0 0 0 0 -0 -0
17 17 16 15 15 16 15 13 13 12 11 11 11 11 10 10 9 9 10 10 9 9 8 8 8 7 6 5 5 4 3 3 2 2 2 1 1 1 1 1 1 1 -0 0 0 0 0 -0 -0 -0 -0 -1 -1 -1
17 17 16 13 14 12 13 13 13 12 10 10 10 10 9 10 9 9 8 9 9 9 8 8 7 6 5 5 4 3 3 2 1 1 1 0 0 0 0 1 0 0 0 -0 -0 -1 -1 -1 -1 -1 -1 -1 -1 -1
17 17 17 16 13 12 13 13 12 11 10 10 10 10 10 10 9 8 8 8 8 8 7 6 6 5 4 4 3 3 2 1 1 0 -0 -0 -0 -1 -1 -1 -1 -1 -1 -1 -1 -1 -1 -1 -1 -1 -1 -1 -1 -1

GFSWCAN_850_temp_048.txt.gz
Temp
10 10 9 9 10 9 9 9 8 8 8 8 6 4 3 4 4 4 4 4 4 4 4 4 3 3 3 2 2 3 3 3 3 3 3 3 4 4 4 5 5 5 5 5 5 7 10 6 9 9 8 9 8 7
10 10 10 10 10 9 9 9 9 9 8 8 8 4 4 3 4 5 4 4 4 4 5 5 4 4 3 4 3 3 3 3 3 3 3 3 4 3 4 5 4 6 5 5 5 6 5 5 6 7 7 7 7 8
10 10 10 10 10 10 9 9 9 9 9 9 8 7 5 4 5 5 5 4 4 3 5 6 5 5 3 3 3 3 3 3 4 2 2 3 4 2 4 4 5 5 4 4 4 5 5 6 7 7 6 6 7 8
10 10 10 11 10 10 10 10 10 10 9 9 8 7 6 6 5 5 5 5 5 4 3 7 6 5 5 4 4 4 3 3 3 2 2 3 3 2 3 3 4 4 4 4 4 5 6 7 7 6 6 6 7 9
11 11 11 11 10 10 10 10 10 9 9 9 8 7 7 6 6 6 6 6 6 5 4 7 6 6 7 6 5 5 4 4 2 2 2 2 2 2 2 2 4 4 4 5 5 5 5 5 5 6 6 7 7 8
11 11 11 11 10 10 10 10 10 9 9 9 8 8 7 7 6 5 6 6 5 5 5 4 6 6 6 7 7 6 6 4 3 1 1 1 1 2 2 4 4 3 3 3 4 4 4 4 5 5 5 7 9 8
11 11 11 11 11 10 10 10 10 9 9 8 8 8 8 7 7 6 6 6 5 5 5 5 6 5 5 5 6 6 5 5 3 2 2 1 1 1 2 4 4 4 3 3 4 3 4 4 4 4 5 7 7 8
11 11 11 11 11 11 10 10 10 9 9 8 8 8 8 7 7 7 7 6 5 5 5 4 6 6 5 5 4 5 4 4 4 3 3 2 2 1 3 4 5 4 4 3 3 3 3 3 4 4 5 5 7 7
11 11 11 11 11 11 11 10 10 9 9 9 8 8 8 7 7 6 6 5 5 5 4 4 5 7 6 6 5 4 4 4 3 3 3 2 2 3 4 4 5 4 3 3 3 3 3 3 3 3 3 4 4 6
11 12 11 11 11 11 11 11 10 10 9 9 8 8 8 8 7 6 6 5 6 5 5 3 5 6 7 6 6 5 5 6 5 4 4 2 2 6 5 5 5 4 4 2 2 2 2 2 2 3 2 2 3 4
12 12 12 12 12 12 11 11 11 11 10 9 9 8 8 8 7 6 6 5 5 5 5 6 6 5 7 7 7 7 6 5 5 5 5 4 2 5 6 6 6 5 4 4 2 2 2 2 2 2 2 2 2 3
12 12 12 12 12 11 11 11 11 11 10 10 9 9 8 8 7 6 5 6 4 5 9 8 8 6 7 7 6 6 7 5 5 4 6 2 3 7 7 6 6 5 5 5 4 4 3 3 1 1 2 2 1 2
12 12 12 12 12 11 11 12 11 11 11 10 9 9 8 8 6 9 5 7 7 11 12 10 7 8 6 6 7 7 7 5 4 5 4 2 6 7 7 7 7 6 4 4 4 4 3 3 2 2 1 1 2 2
12 12 13 13 12 12 12 12 12 12 11 10 9 5 8 8 8 7 7 7 12 12 12 9 8 7 7 6 5 7 4 4 4 5 3 3 7 7 7 7 7 7 6 5 5 5 4 4 3 2 2 2 1 1
12 13 13 13 12 12 12 13 13 12 12 11 10 7 8 12 13 13 12 11 13 12 10 9 8 8 6 7 4 5 7 4 2 3 3 7 7 8 8 7 7 7 7 7 6 5 5 5 4 4 3 2 2 2
13 13 13 12 12 13 13 13 13 12 12 11 10 10 11 10 12 13 13 13 13 12 10 10 7 7 7 5 7 6 5 1 4 3 7 7 7 8 8 8 7 7 7 7 7 6 5 5 5 4 4 3 3 3
13 12 12 12 13 13 13 13 13 12 12 12 13 13 13 13 13 14 14 14 13 12 7 8 9 9 5 6 7 3 4 3 6 7 7 7 7 8 8 8 8 7 7 7 7 7 6 5 5 5 4 4 3 3
13 13 13 13 13 13 13 13 13 13 13 14 13 15 14 14 15 14 14 14 13 12 11 10 8 8 7 7 5 4 7 7 7 7 7 7 8 8 8 8 8 7 7 7 7 6 6 5 5 5 5 4 4 3
13 13 13 13 13 13 13 12 13 13 14 14 15 15 14 15 14 14 13 13 13 12 11 9 7 6 6 6 7 8 8 7 7 7 8 7 7 8 8 8 8 7 7 6 6 6 6 5 5 5 5 4 4 4
14 13 13 12 13 13 13 13 13 14 13 15 14 15 14 14 13 13 12 12 12 12 10 6 7 8 9 9 9 8 8 7 7 7 8 8 8 7 7 7 8 7 6 6 6 6 6 5 5 5 5 4 4 4
13 12 13 13 13 13 13 14 14 14 14 14 15 14 13 12 12 12 11 10 11 8 7 7 8 8 7 7 8 9 8 8 7 7 7 7 7 7 7 7 7 7 6 6 6 6 5 5 5 5 4 4 4 4
12 12 12 12 12 12 13 14 14 14 14 15 13 12 11 10 9 9 10 10 8 8 7 7 6 6 6 8 8 8 8 8 8 7 7 7 6 6 6 6 6 6 6 6 6 5 5 5 5 4 3 3 3 3
12 12 12 12 12 13 14 14 14 14 12 13 12 10 8 9 9 9 9 8 8 8 7 7 7 7 7 8 8 8 7 7 7 7 7 6 6 5 5 5 5 5 5 6 6 5 5 5 4 4 3 3 3 3
12 12 12 12 12 12 13 14 13 13 12 11 8 9 7 7 8 8 7 9 8 7 8 8 8 9 9 9 8 8 8 8 7 7 7 6 5 5 5 5 5 4 4 4 4 4 4 4 4 4 3 3 2 2
11 12 12 12 12 12 11 11 11 10 10 9 9 8 7 8 6 6 6 9 9 8 8 8 8 8 8 8 8 8 8 7 6 7 6 5 5 5 4 4 4 4 3 3 4 4 4 3 3 2 2 2 2 1
5 12 12 12 12 11 11 11 10 9 8 9 8 8 8 6 7 7 7 9 9 9 8 9 8 8 8 8 8 7 7 6 6 6 6 5 5 4 4 4 3 3 3 3 3 3 3 3 3 2 2 1 1 1
6 11 13 13 13 12 10 9 9 8 9 10 8 7 7 8 8 8 9 9 8 9 9 8 8 8 7 7 6 6 6 6 6 6 5 5 4 4 3 1 0 2 2 2 2 2 2 2 2 2 1 1 1 0
12 12 11 13 13 12 10 8 8 8 9 9 8 8 9 8 7 9 9 9 9 8 9 8 8 8 7 7 6 6 7 6 5 5 4 4 3 3 2 2 2 1 1 1 1 1 1 1 1 1 1 0 -0 0
12 13 13 13 12 11 11 10 10 11 11 10 9 7 8 9 9 10 10 10 10 10 9 8 7 7 7 6 5 5 5 4 4 4 4 3 3 2 2 1 -0 -0 -0 0 0 1 1 1 1 1 0 -0 -1 -0
14 14 14 13 11 11 13 13 12 12 11 11 10 10 9 9 10 10 10 9 9 9 8 7 7 6 5 5 4 4 4 3 3 3 2 2 2 2 1 1 -0 -1 -1 0 0 0 0 -0 -0 -0 -0 -0 -1 -1
15 14 14 14 14 14 13 12 12 11 11 10 10 10 10 9 9 9 9 9 8 8 8 7 6 5 4 4 3 3 2 2 1 1 1 0 0 1 1 1 1 -0 0 0 0 -0 -0 -0 -0 -1 -1 -1 -1 -1
15 15 15 12 13 12 11 11 11 11 10 10 10 10 9 9 9 8 8 8 8 8 7 6 6 5 4 3 3 2 1 1 0 -0 -0 -0 -0 0 0 0 0 -0 -0 -0 -0 -1 -1 -1 -1 -1 -1 -1 -1 -1
15 14 14 13 10 10 11 12 11 10 10 10 10 10 10 10 9 8 8 8 7 7 7 6 5 4 3 3 2 1 1 0 -0 -1 -1 -1 -1 -1 -1 -1 -1 -1 -1 -1 -1 -1 -1 -1 -1 -1 -1 -1 -2 -2